When you browse on this site, cookies collect data to enhance your experience and personalize the content and advertising you see.
Visit our Privacy Policy to learn more. By continuing to use the site, you agree to this use of cookies and data.

Hourly Weather Eremeyki

Today, 9 August, Sunday

Time Temperature Precipitation Wind Pressure Humidity
00:00 +16°C° 0 mm 2 mps 750 mmHg 94%
01:00 +16°C° 0 mm 2 mps 750 mmHg 95%
02:00 +15°C° 0 mm 2 mps 749 mmHg 96%
03:00 +15°C° 0 mm 2 mps 749 mmHg 96%
04:00 +15°C° 0 mm 2 mps 749 mmHg 96%
05:00 +15°C° 0 mm 2 mps 749 mmHg 95%
06:00 +17°C° 0 mm 2 mps 749 mmHg 88%
07:00 +19°C° 0 mm 2 mps 749 mmHg 81%
08:00 +20°C° 0 mm 2 mps 749 mmHg 73%
09:00 +23°C° 0 mm 2 mps 749 mmHg 68%
10:00 +24°C° 0 mm 2 mps 749 mmHg 63%
11:00 +25°C° 0 mm 2 mps 749 mmHg 58%
12:00 +25°C° 0.1 mm 2 mps 749 mmHg 57%
13:00 +26°C° 0.1 mm 2 mps 748 mmHg 56%
14:00 +26°C° 0.1 mm 2 mps 748 mmHg 55%
15:00 +25°C° 0.2 mm 2 mps 748 mmHg 61%
16:00 +25°C° 0.2 mm 1 mps 748 mmHg 68%
17:00 +24°C° 0.2 mm 1 mps 747 mmHg 74%
18:00 +23°C° 0.1 mm 1 mps 747 mmHg 80%
19:00 +21°C° 0.1 mm 1 mps 747 mmHg 85%
20:00 +19°C° 0.1 mm 1 mps 747 mmHg 90%
21:00 +19°C° 0 mm 1 mps 747 mmHg 91%
22:00 +18°C° 0 mm 1 mps 748 mmHg 93%
23:00 +15°C° 0 mm 0 mps 748 mmHg 94%

Tomorrow, 10 August, Monday

Time Temperature Precipitation Wind Pressure Humidity
00:00 +15°C° 0 mm 0 mps 748 mmHg 95%
01:00 +15°C° 0 mm 0 mps 748 mmHg 95%
02:00 +14°C° 0 mm 0 mps 748 mmHg 95%
03:00 +15°C° 0 mm 0 mps 747 mmHg 95%
04:00 +15°C° 0 mm 0 mps 747 mmHg 95%
05:00 +15°C° 0 mm 0 mps 747 mmHg 95%
06:00 +17°C° 0 mm 0 mps 747 mmHg 90%
07:00 +18°C° 0 mm 0 mps 747 mmHg 85%
08:00 +22°C° 0 mm 1 mps 747 mmHg 79%
09:00 +23°C° 0.4 mm 1 mps 747 mmHg 74%
10:00 +25°C° 0.4 mm 1 mps 747 mmHg 69%
11:00 +26°C° 0.4 mm 1 mps 747 mmHg 64%
12:00 +26°C° 0.4 mm 1 mps 746 mmHg 62%
13:00 +27°C° 0.4 mm 2 mps 746 mmHg 59%
14:00 +27°C° 0.4 mm 2 mps 746 mmHg 57%
15:00 +26°C° 0.9 mm 2 mps 745 mmHg 65%
16:00 +25°C° 0.9 mm 2 mps 745 mmHg 74%
17:00 +24°C° 0.9 mm 2 mps 745 mmHg 82%
18:00 +21°C° 0.3 mm 2 mps 745 mmHg 86%
19:00 +20°C° 0.3 mm 2 mps 745 mmHg 89%
20:00 +18°C° 0.3 mm 2 mps 745 mmHg 93%
21:00 +17°C° 0 mm 2 mps 745 mmHg 93%
22:00 +16°C° 0 mm 2 mps 746 mmHg 93%
23:00 +15°C° 0 mm 2 mps 746 mmHg 93%

Day after tomorrow, 11 August, Tuesday

Time Temperature Precipitation Wind Pressure Humidity
00:00 +14°C° 0 mm 2 mps 746 mmHg 95%
01:00 +13°C° 0 mm 2 mps 746 mmHg 96%
02:00 +12°C° 0 mm 2 mps 746 mmHg 97%
03:00 +12°C° 0 mm 2 mps 746 mmHg 97%
04:00 +10°C° 0 mm 2 mps 746 mmHg 97%
05:00 +10°C° 0 mm 3 mps 746 mmHg 98%
06:00 +11°C° 0 mm 3 mps 746 mmHg 94%
07:00 +12°C° 0 mm 3 mps 747 mmHg 91%
08:00 +13°C° 0 mm 3 mps 747 mmHg 87%
09:00 +13°C° 0.1 mm 3 mps 747 mmHg 85%
10:00 +13°C° 0.1 mm 4 mps 747 mmHg 83%
11:00 +13°C° 0.1 mm 4 mps 747 mmHg 80%
12:00 +14°C° 0 mm 4 mps 747 mmHg 77%
13:00 +14°C° 0 mm 4 mps 747 mmHg 73%
14:00 +14°C° 0 mm 4 mps 747 mmHg 69%
15:00 +14°C° 0 mm 4 mps 747 mmHg 70%
16:00 +14°C° 0 mm 4 mps 747 mmHg 72%
17:00 +14°C° 0 mm 4 mps 748 mmHg 73%
18:00 +14°C° 0 mm 4 mps 748 mmHg 76%
19:00 +13°C° 0 mm 3 mps 748 mmHg 78%
20:00 +12°C° 0 mm 3 mps 748 mmHg 81%
21:00 +12°C° 0 mm 3 mps 748 mmHg 82%
22:00 +12°C° 0 mm 3 mps 748 mmHg 82%
23:00 +12°C° 0 mm 3 mps 748 mmHg 83%

12 August, Wednesday

Time Temperature Precipitation Wind Pressure Humidity
00:00 +12°C° 0 mm 3 mps 748 mmHg 83%
01:00 +12°C° 0 mm 3 mps 748 mmHg 84%
02:00 +12°C° 0 mm 3 mps 748 mmHg 84%
03:00 +12°C° 0 mm 3 mps 748 mmHg 85%
04:00 +11°C° 0 mm 3 mps 748 mmHg 86%
05:00 +11°C° 0 mm 3 mps 748 mmHg 87%
06:00 +12°C° 0 mm 3 mps 749 mmHg 82%
07:00 +13°C° 0 mm 3 mps 749 mmHg 78%
08:00 +14°C° 0 mm 3 mps 749 mmHg 73%
09:00 +15°C° 0 mm 4 mps 749 mmHg 67%
10:00 +17°C° 0 mm 4 mps 749 mmHg 61%
11:00 +18°C° 0 mm 4 mps 749 mmHg 55%
12:00 +18°C° 0 mm 4 mps 749 mmHg 55%
13:00 +17°C° 0 mm 4 mps 749 mmHg 55%
14:00 +17°C° 0 mm 4 mps 749 mmHg 54%
15:00 +17°C° 0 mm 3 mps 749 mmHg 55%
16:00 +17°C° 0 mm 3 mps 749 mmHg 57%
17:00 +16°C° 0 mm 2 mps 749 mmHg 58%
18:00 +15°C° 0 mm 2 mps 749 mmHg 62%
19:00 +14°C° 0 mm 2 mps 749 mmHg 66%
20:00 +13°C° 0 mm 1 mps 749 mmHg 70%
21:00 +13°C° 0 mm 1 mps 749 mmHg 73%
22:00 +12°C° 0 mm 1 mps 749 mmHg 76%
23:00 +11°C° 0 mm 1 mps 748 mmHg 78%

13 August, Thursday

Time Temperature Precipitation Wind Pressure Humidity
00:00 +11°C° 0 mm 1 mps 748 mmHg 79%
01:00 +10°C° 0 mm 2 mps 748 mmHg 80%
02:00 +10°C° 0 mm 2 mps 748 mmHg 80%
03:00 +10°C° 0 mm 2 mps 748 mmHg 81%
04:00 +10°C° 0 mm 2 mps 748 mmHg 82%
05:00 +10°C° 0 mm 2 mps 748 mmHg 82%
06:00 +12°C° 0 mm 2 mps 747 mmHg 78%
07:00 +13°C° 0 mm 2 mps 747 mmHg 74%
08:00 +14°C° 0 mm 2 mps 747 mmHg 69%
09:00 +14°C° 0.1 mm 2 mps 747 mmHg 73%
10:00 +13°C° 0.1 mm 3 mps 746 mmHg 76%
11:00 +13°C° 0.1 mm 3 mps 746 mmHg 79%
12:00 +12°C° 0.2 mm 3 mps 746 mmHg 83%
13:00 +12°C° 0.2 mm 3 mps 745 mmHg 87%
14:00 +11°C° 0.2 mm 3 mps 745 mmHg 91%
15:00 +12°C° 0.2 mm 3 mps 744 mmHg 91%
16:00 +12°C° 0.2 mm 3 mps 744 mmHg 92%
17:00 +13°C° 0.2 mm 2 mps 744 mmHg 93%
18:00 +12°C° 0 mm 3 mps 743 mmHg 93%
19:00 +12°C° 0 mm 3 mps 743 mmHg 94%
20:00 +12°C° 0 mm 3 mps 742 mmHg 94%
21:00 +12°C° 0.3 mm 3 mps 742 mmHg 95%
22:00 +12°C° 0.3 mm 3 mps 742 mmHg 95%
23:00 +12°C° 0.3 mm 3 mps 741 mmHg 96%

14 August, Friday

Time Temperature Precipitation Wind Pressure Humidity
00:00 +12°C° 0 mm 3 mps 741 mmHg 96%
01:00 +12°C° 0 mm 3 mps 741 mmHg 97%
02:00 +12°C° 0 mm 3 mps 741 mmHg 98%
03:00 +12°C° 0 mm 3 mps 741 mmHg 97%
04:00 +11°C° 0 mm 4 mps 742 mmHg 96%
05:00 +11°C° 0 mm 4 mps 742 mmHg 95%
06:00 +11°C° 0 mm 4 mps 742 mmHg 93%
07:00 +12°C° 0 mm 4 mps 742 mmHg 91%
08:00 +12°C° 0 mm 4 mps 743 mmHg 89%
09:00 +13°C° 0 mm 4 mps 743 mmHg 83%
10:00 +13°C° 0 mm 4 mps 743 mmHg 77%
11:00 +14°C° 0 mm 4 mps 743 mmHg 71%
12:00 +15°C° 0 mm 4 mps 743 mmHg 66%
13:00 +17°C° 0 mm 4 mps 743 mmHg 60%
14:00 +18°C° 0 mm 4 mps 743 mmHg 54%
15:00 +18°C° 0 mm 4 mps 743 mmHg 57%
16:00 +17°C° 0 mm 4 mps 744 mmHg 60%
17:00 +15°C° 0 mm 4 mps 744 mmHg 62%
18:00 +14°C° 0 mm 3 mps 744 mmHg 68%
19:00 +12°C° 0 mm 3 mps 744 mmHg 74%
20:00 +10°C° 0 mm 2 mps 744 mmHg 80%
21:00 +9°C° 0 mm 2 mps 745 mmHg 83%
22:00 +8°C° 0 mm 2 mps 745 mmHg 85%
23:00 +7°C° 0 mm 2 mps 745 mmHg 88%
Show more